SV1KWZ-1 Weather Reports


Display with metric or nautical units.
time (UTC)temp
F
wind
direction
speed
MPH
gust
MPH
rain 1hr
in
rain 24hr
in
rain mn
in
humidity
%
barometer
mb
20260508065403 68 234 3.0 6.0 0.00 0.00 0.00 42 1027.7
20260508065103 68 233 3.0 6.0 0.00 0.00 0.00 41 1027.7
20260508064803 68 233 3.0 6.0 0.00 0.00 0.00 41 1027.6
20260508064503 68 231 3.0 6.0 0.00 0.00 0.00 40 1027.5
20260508064203 68 229 3.0 6.0 0.00 0.00 0.00 40 1027.3
20260508063903 68 231 3.0 6.0 0.00 0.00 0.00 40 1027.4
20260508063603 68 228 4.0 6.0 0.00 0.00 0.00 39 1027.2
20260508063303 68 232 4.0 6.0 0.00 0.00 0.00 39 1027.2
20260508063003 68 231 3.0 6.0 0.00 0.00 0.00 38 1027.3
20260508062917 68 233 3.0 6.0 0.00 0.00 0.00 38 1027.2
20260508062404 68 238 3.0 8.0 0.00 0.00 0.00 38 1027.1
20260508062103 68 243 4.0 8.0 0.00 0.00 0.00 37 1027.1
20260508062016 68 244 4.0 8.0 0.00 0.00 0.00 37 1027.1
20260508061503 68 245 4.0 8.0 0.00 0.00 0.00 37 1027.1
20260508061203 68 243 4.0 8.0 0.00 0.00 0.00 38 1027.0
20260508060903 68 242 3.0 7.0 0.00 0.00 0.00 38 1027.1
20260508060603 68 240 3.0 6.0 0.00 0.00 0.00 39 1026.9
20260508060303 68 243 2.0 6.0 0.00 0.00 0.00 39 1027.0
20260508060003 69 244 1.0 6.0 0.00 0.00 0.00 39 1026.8
20260508055917 69 246 1.0 4.0 0.00 0.00 0.00 39 1026.8
20260508055616 68 247 1.0 3.0 0.00 0.00 0.00 40 1026.7
20260508055316 68 248 1.0 3.0 0.00 0.00 0.00 42 1026.4
20260508055018 68 247 1.0 3.0 0.00 0.00 0.00 42 1026.2
20260508054504 68 244 1.0 3.0 0.00 0.00 0.00 44 1025.9
20260508054203 68 245 1.0 3.0 0.00 0.00 0.00 44 1025.9
20260508053903 68 243 0.0 3.0 0.00 0.00 0.00 44 1026.1
20260508053817 68 241 0.0 2.0 0.00 0.00 0.00 45 1025.9
20260508053517 68 236 0.0 1.0 0.00 0.00 0.00 45 1025.9
20260508053004 68 230 0.0 1.0 0.00 0.00 0.00 46 1025.7
20260508052703 68 230 0.0 1.0 0.00 0.00 0.00 46 1025.6
20260508052403 68 228 0.0 1.0 0.00 0.00 0.00 45 1025.8
20260508052103 67 228 0.0 1.0 0.00 0.00 0.00 46 1025.5
20260508051803 67 227 0.0 1.0 0.00 0.00 0.00 46 1025.5
20260508051718 67 227 0.0 1.0 0.00 0.00 0.00 46 1025.5
20260508051203 67 232 0.0 1.0 0.00 0.00 0.00 46 1025.4
20260508051117 67 233 0.0 1.0 0.00 0.00 0.00 47 1025.2
20260508050603 67 234 1.0 1.0 0.00 0.00 0.00 47 1025.3
20260508050303 67 234 1.0 1.0 0.00 0.00 0.00 48 1025.3
20260508050003 67 260 1.0 2.0 0.00 0.00 0.00 47 1025.2
20260508045703 67 310 1.0 2.0 0.00 0.00 0.00 48 1025.3
20260508045403 67 350 1.0 2.0 0.00 0.00 0.00 48 1025.2
20260508045103 67 31 0.0 1.0 0.00 0.00 0.00 48 1025.5
20260508044803 67 31 0.0 1.0 0.00 0.00 0.00 48 1025.1
20260508044503 67 31 0.0 1.0 0.00 0.00 0.00 48 1025.2
20260508044203 67 31 0.0 1.0 0.00 0.00 0.00 51 1025.3
20260508043903 66 32 0.0 1.0 0.00 0.00 0.00 50 1025.3
20260508043603 67 32 0.0 1.0 0.00 0.00 0.00 51 1025.1
20260508043303 66 32 0.0 1.0 0.00 0.00 0.00 51 1025.2
20260508043003 66 32 0.0 1.0 0.00 0.00 0.00 51 1025.0
20260508042703 66 32 0.0 1.0 0.00 0.00 0.00 51 1025.0
20260508042403 66 33 0.0 1.0 0.00 0.00 0.00 51 1024.9
20260508042103 66 33 0.0 1.0 0.00 0.00 0.00 51 1024.7
20260508041804 66 33 0.0 1.0 0.00 0.00 0.00 51 1024.5
20260508041717 66 33 0.0 1.0 0.00 0.00 0.00 51 1024.7
20260508041203 66 33 0.0 1.0 0.00 0.00 0.00 50 1024.7
20260508041117 66 32 0.0 1.0 0.00 0.00 0.00 50 1024.6
20260508040603 67 32 0.0 1.0 0.00 0.00 0.00 51 1024.6
20260508040516 67 32 0.0 1.0 0.00 0.00 0.00 51 1024.5
20260508040003 66 32 0.0 1.0 0.00 0.00 0.00 50 1024.4
20260508035703 66 32 0.0 1.0 0.00 0.00 0.00 51 1024.4
20260508035403 66 32 0.0 1.0 0.00 0.00 0.00 50 1024.5
20260508035103 66 31 1.0 2.0 0.00 0.00 0.00 51 1024.5
20260508034803 66 31 1.0 2.0 0.00 0.00 0.00 51 1024.3
20260508034503 66 31 1.0 2.0 0.00 0.00 0.00 51 1023.9
20260508034203 66 31 0.0 2.0 0.00 0.00 0.00 51 1024.1
20260508033903 66 38 0.0 2.0 0.00 0.00 0.00 51 1024.3
20260508033817 66 38 0.0 2.0 0.00 0.00 0.00 51 1024.4
20260508033303 66 41 0.0 2.0 0.00 0.00 0.00 52 1024.3
20260508033218 66 41 1.0 2.0 0.00 0.00 0.00 52 1024.3
20260508032703 66 41 1.0 1.0 0.00 0.00 0.00 53 1024.2
20260508032403 66 41 1.0 1.0 0.00 0.00 0.00 53 1024.1
20260508032103 66 41 1.0 1.0 0.00 0.00 0.00 53 1024.2
20260508031803 66 41 0.0 1.0 0.00 0.00 0.00 53 1024.0
20260508031503 66 42 0.0 1.0 0.00 0.00 0.00 53 1024.4
20260508031203 66 43 0.0 1.0 0.00 0.00 0.00 54 1024.2
20260508030903 66 44 0.0 1.0 0.00 0.00 0.00 54 1024.2
20260508030603 66 44 1.0 1.0 0.00 0.00 0.00 54 1024.2
20260508030303 66 43 1.0 1.0 0.00 0.00 0.00 54 1024.2
20260508030003 66 43 1.0 1.0 0.00 0.00 0.00 53 1024.2
20260508025918 66 42 1.0 1.0 0.00 0.00 0.00 53 1024.2
20260508025403 66 37 0.0 1.0 0.00 0.00 0.00 52 1024.2
20260508025103 66 35 0.0 1.0 0.00 0.00 0.00 52 1024.4
20260508024803 66 34 0.0 1.0 0.00 0.00 0.00 52 1024.2
20260508024503 66 35 0.0 1.0 0.00 0.00 0.00 52 1024.2
20260508024203 66 35 0.0 1.0 0.00 0.00 0.00 52 1024.4
20260508023903 66 36 0.0 1.0 0.00 0.00 0.00 53 1024.6
20260508023603 66 36 0.0 1.0 0.00 0.00 0.00 53 1024.4
20260508023518 66 36 1.0 2.0 0.00 0.00 0.00 53 1024.2
20260508023218 66 32 1.0 2.0 0.00 0.00 0.00 53 1024.2
20260508022703 66 28 1.0 2.0 0.00 0.00 0.00 53 1024.5
20260508022403 66 26 0.0 1.0 0.00 0.00 0.00 53 1024.3
20260508022103 66 28 0.0 2.0 0.00 0.00 0.00 54 1024.3
20260508021803 66 27 0.0 2.0 0.00 0.00 0.00 54 1024.4
20260508021503 66 27 0.0 2.0 0.00 0.00 0.00 54 1024.2
20260508021203 66 27 0.0 2.0 0.00 0.00 0.00 55 1024.4
20260508020903 66 27 1.0 2.0 0.00 0.00 0.00 55 1024.5
20260508020603 66 21 1.0 2.0 0.00 0.00 0.00 55 1024.4
20260508020518 66 20 1.0 2.0 0.00 0.00 0.00 55 1024.4
20260508020003 66 30 1.0 2.0 0.00 0.00 0.00 56 1024.5
20260508015917 66 33 1.0 2.0 0.00 0.00 0.00 56 1024.5
20260508015403 66 67 1.0 2.0 0.00 0.00 0.00 56 1024.4
20260508015103 66 69 1.0 2.0 0.00 0.00 0.00 57 1024.4
20260508014804 65 46 0.0 2.0 0.00 0.00 0.00 57 1024.3
20260508014716 65 350 0.0 1.0 0.00 0.00 0.00 57 1024.5
20260508014203 65 302 0.0 1.0 0.00 0.00 0.00 58 1024.5
20260508014118 65 299 0.0 1.0 0.00 0.00 0.00 58 1024.3
20260508013818 65 298 0.0 1.0 0.00 0.00 0.00 58 1024.5
20260508013304 65 296 0.0 1.0 0.00 0.00 0.00 58 1024.7
20260508013003 65 292 0.0 1.0 0.00 0.00 0.00 58 1024.8
20260508012703 65 292 0.0 1.0 0.00 0.00 0.00 58 1024.4
20260508012403 65 292 0.0 1.0 0.00 0.00 0.00 58 1024.9
20260508012103 65 292 0.0 1.0 0.00 0.00 0.00 58 1024.9
20260508011804 65 0 0.0 0.0 0.00 0.00 0.00 58 1024.7
20260508011503 65 0 0.0 0.0 0.00 0.00 0.00 58 1024.7
20260508011204 65 292 0.0 1.0 0.00 0.00 0.00 58 1024.8
20260508011118 65 292 0.0 1.0 0.00 0.00 0.00 58 1025.0
20260508010603 65 292 0.0 1.0 0.00 0.00 0.00 58 1025.0
20260508010303 65 0 0.0 0.0 0.00 0.00 0.00 58 1025.1
20260508010003 65 0 0.0 0.0 0.00 0.00 0.00 59 1025.1
20260508005703 65 0 0.0 0.0 0.00 0.00 0.00 60 1024.9
20260508005403 65 0 0.0 0.0 0.00 0.00 0.00 59 1025.0
20260508005103 65 0 0.0 0.0 0.00 0.00 0.00 59 1025.1
20260508004803 65 0 0.0 0.0 0.00 0.00 0.00 59 1025.1
20260508004503 65 292 0.0 1.0 0.00 0.00 0.00 60 1025.1
20260508004203 65 292 0.0 1.0 0.00 0.00 0.00 59 1025.0
20260508003903 65 292 0.0 1.0 0.00 0.00 0.00 59 1025.1
20260508003603 65 292 0.0 1.0 0.00 0.00 0.00 59 1025.0
20260508003303 65 0 0.0 0.0 0.00 0.00 0.00 59 1025.1
20260508003217 65 0 0.0 0.0 0.00 0.00 0.00 59 1025.2
20260508002704 65 292 0.0 1.0 0.00 0.00 0.00 60 1024.9
20260508002403 66 292 0.0 1.0 0.00 0.00 0.00 59 1024.8
20260508002103 66 292 0.0 1.0 0.00 0.00 0.00 59 1024.9
20260508002018 66 291 0.0 1.0 0.00 0.00 0.00 60 1025.0
20260508001504 66 291 0.0 2.0 0.00 0.00 0.00 59 1025.2
20260508001203 65 291 0.0 2.0 0.00 0.00 0.00 59 1025.1
20260508000903 65 292 0.0 1.0 0.00 0.00 0.00 60 1025.0
20260508000603 65 291 0.0 1.0 0.00 0.00 0.00 60 1025.1
20260508000305 65 290 0.0 1.0 0.00 0.00 0.00 60 1025.1
20260508000003 65 288 0.0 1.0 0.00 0.00 0.00 60 1025.1
20260507235703 66 278 0.0 1.0 0.00 0.00 0.00 60 1025.2
20260507235616 66 275 0.0 1.0 0.00 0.00 0.00 60 1025.0
20260507235103 66 260 0.0 1.0 0.00 0.00 0.00 60 1025.4
20260507234803 66 253 0.0 1.0 0.00 0.00 0.00 60 1025.3
20260507234503 66 249 0.0 1.0 0.00 0.00 0.00 60 1025.4
20260507234203 66 247 0.0 1.0 0.00 0.00 0.00 59 1025.6
20260507233903 66 251 0.0 1.0 0.00 0.00 0.00 59 1025.4
20260507233603 66 252 0.0 1.0 0.00 0.00 0.00 59 1025.7
20260507233303 66 243 1.0 2.0 0.00 0.00 0.00 58 1025.9
20260507233003 66 234 1.0 3.0 0.00 0.00 0.00 58 1026.0
20260507232703 66 238 1.0 3.0 0.00 0.00 0.00 58 1025.9
20260507232403 66 238 2.0 3.0 0.00 0.00 0.00 58 1025.8
20260507232103 66 242 1.0 3.0 0.00 0.00 0.00 58 1025.7
20260507231803 66 236 1.0 3.0 0.00 0.00 0.00 57 1025.9
20260507231718 66 233 1.0 3.0 0.00 0.00 0.00 57 1025.9
20260507231203 66 228 2.0 3.0 0.00 0.00 0.00 57 1025.9
20260507230903 66 231 2.0 4.0 0.00 0.00 0.00 57 1025.6
20260507230603 66 227 2.0 4.0 0.00 0.00 0.00 57 1025.6
20260507230517 66 227 2.0 4.0 0.00 0.00 0.00 57 1025.7
20260507230003 66 226 2.0 4.0 0.00 0.00 0.00 57 1025.7
20260507225703 66 231 1.0 4.0 0.00 0.00 0.00 57 1025.8
20260507225403 66 235 1.0 4.0 0.00 0.00 0.00 56 1025.9
20260507225318 66 238 1.0 4.0 0.00 0.00 0.00 56 1025.8
20260507224803 66 239 1.0 4.0 0.00 0.00 0.00 56 1026.0
20260507224503 66 240 2.0 4.0 0.00 0.00 0.00 55 1025.9
20260507224203 66 242 2.0 4.0 0.00 0.00 0.00 55 1026.1
20260507223903 66 239 2.0 4.0 0.00 0.00 0.00 55 1025.9
20260507223817 66 240 2.0 4.0 0.00 0.00 0.00 55 1026.1
20260507223303 66 242 2.0 4.0 0.00 0.00 0.00 54 1026.2
20260507223003 66 243 2.0 4.0 0.00 0.00 0.00 54 1026.0
20260507222703 67 245 2.0 4.0 0.00 0.00 0.00 54 1026.1
20260507222618 67 245 1.0 4.0 0.00 0.00 0.00 54 1026.0
20260507222103 66 225 1.0 3.0 0.00 0.00 0.00 53 1026.0
20260507221803 66 222 1.0 3.0 0.00 0.00 0.00 53 1026.0
20260507221503 66 217 1.0 3.0 0.00 0.00 0.00 53 1025.9
20260507221203 67 212 1.0 3.0 0.00 0.00 0.00 53 1026.3
20260507220903 67 209 1.0 3.0 0.00 0.00 0.00 53 1026.0
20260507220603 67 212 1.0 3.0 0.00 0.00 0.00 53 1026.0
20260507220303 67 220 1.0 3.0 0.00 0.00 0.00 53 1026.3
20260507220218 67 219 1.0 3.0 0.00 0.00 0.00 52 1026.2
20260507215703 67 232 2.0 4.0 0.00 0.00 0.00 52 1026.1
20260507215403 67 236 2.0 4.0 0.00 0.00 0.00 52 1026.2
20260507215317 67 236 2.0 4.0 0.00 0.00 0.00 52 1026.5
20260507214803 67 238 2.0 4.0 0.00 0.00 0.00 51 1026.5
20260507214503 67 237 2.0 6.0 0.00 0.00 0.00 51 1026.4
20260507214203 67 239 3.0 6.0 0.00 0.00 0.00 50 1026.4
20260507214117 67 240 2.0 6.0 0.00 0.00 0.00 50 1026.6
20260507213603 67 241 2.0 6.0 0.00 0.00 0.00 50 1026.6
20260507213303 67 240 2.0 4.0 0.00 0.00 0.00 49 1026.7
20260507213003 67 234 1.0 4.0 0.00 0.00 0.00 49 1026.4
20260507212703 67 231 1.0 3.0 0.00 0.00 0.00 49 1026.6
20260507212403 67 228 1.0 4.0 0.00 0.00 0.00 49 1026.4
20260507212103 67 228 2.0 4.0 0.00 0.00 0.00 49 1026.7
20260507211803 67 229 2.0 4.0 0.00 0.00 0.00 49 1026.8
20260507211717 67 227 2.0 4.0 0.00 0.00 0.00 49 1026.6
20260507211203 67 224 3.0 4.0 0.00 0.00 0.00 48 1026.7
20260507210903 67 229 2.0 4.0 0.00 0.00 0.00 48 1026.4
20260507210603 67 228 2.0 7.0 0.00 0.00 0.00 47 1026.7
20260507210303 67 221 2.0 7.0 0.00 0.00 0.00 46 1026.5
20260507210218 67 222 2.0 7.0 0.00 0.00 0.00 46 1026.8
20260507205703 68 224 3.0 8.0 0.00 0.00 0.00 45 1026.6
20260507205403 68 232 3.0 8.0 0.00 0.00 0.00 44 1026.6
20260507205103 68 232 3.0 8.0 0.00 0.00 0.00 44 1026.4
20260507204803 68 233 3.0 7.0 0.00 0.00 0.00 42 1026.3
20260507204503 68 233 3.0 7.0 0.00 0.00 0.00 42 1026.6
20260507204203 68 233 2.0 4.0 0.00 0.00 0.00 42 1026.5
20260507204118 68 236 2.0 4.0 0.00 0.00 0.00 42 1026.6
20260507203603 68 231 2.0 4.0 0.00 0.00 0.00 42 1026.5
20260507203303 68 233 2.0 4.0 0.00 0.00 0.00 42 1026.4
20260507203003 68 232 2.0 4.0 0.00 0.00 0.00 43 1026.6
20260507202703 68 236 2.0 4.0 0.00 0.00 0.00 42 1026.5
20260507202403 68 237 1.0 4.0 0.00 0.00 0.00 42 1026.5
20260507202103 68 243 0.0 2.0 0.00 0.00 0.00 42 1026.7
20260507201803 68 246 0.0 2.0 0.00 0.00 0.00 41 1026.6
20260507201716 68 247 0.0 1.0 0.00 0.00 0.00 42 1026.3
20260507201203 68 244 0.0 1.0 0.00 0.00 0.00 42 1026.6
20260507201118 68 248 0.0 2.0 0.00 0.00 0.00 42 1026.5
20260507200603 68 244 0.0 2.0 0.00 0.00 0.00 42 1026.6
20260507200303 68 243 1.0 2.0 0.00 0.00 0.00 42 1026.6
20260507200003 68 241 1.0 2.0 0.00 0.00 0.00 42 1026.4
20260507195703 68 240 1.0 2.0 0.00 0.00 0.00 42 1026.3
20260507195403 68 236 1.0 3.0 0.00 0.00 0.00 42 1026.3
20260507195103 68 235 1.0 3.0 0.00 0.00 0.00 42 1026.4
20260507195017 68 235 1.0 3.0 0.00 0.00 0.00 42 1026.5
20260507194503 69 235 2.0 3.0 0.00 0.00 0.00 41 1026.3
20260507194203 69 233 2.0 3.0 0.00 0.00 0.00 41 1026.1
20260507193903 69 234 2.0 3.0 0.00 0.00 0.00 40 1026.3
20260507193603 69 233 2.0 3.0 0.00 0.00 0.00 40 1026.2
20260507193303 69 230 2.0 3.0 0.00 0.00 0.00 39 1026.3
20260507193003 69 233 1.0 3.0 0.00 0.00 0.00 39 1026.2
20260507192703 69 237 1.0 3.0 0.00 0.00 0.00 39 1026.3
20260507192403 68 245 1.0 2.0 0.00 0.00 0.00 39 1026.2
20260507192103 68 243 0.0 2.0 0.00 0.00 0.00 40 1026.2
20260507191803 68 244 0.0 1.0 0.00 0.00 0.00 40 1026.3
20260507191503 68 244 0.0 2.0 0.00 0.00 0.00 40 1026.4
20260507191203 68 244 0.0 2.0 0.00 0.00 0.00 40 1026.2
20260507190903 69 244 0.0 2.0 0.00 0.00 0.00 40 1026.2
20260507190603 68 244 0.0 2.0 0.00 0.00 0.00 40 1026.1
20260507190303 68 244 0.0 1.0 0.00 0.00 0.00 40 1026.1
20260507190217 68 244 0.0 1.0 0.00 0.00 0.00 40 1026.2
20260507185703 69 243 1.0 3.0 0.00 0.00 0.00 40 1026.2
20260507185403 69 246 1.0 3.0 0.00 0.00 0.00 40 1026.1
20260507185103 69 238 2.0 4.0 0.00 0.00 0.00 40 1026.1
20260507185018 69 237 2.0 4.0 0.00 0.00 0.00 40 1026.2
20260507184504 69 226 1.0 4.0 0.00 0.00 0.00 40 1026.0
20260507184203 69 227 1.0 2.0 0.00 0.00 0.00 39 1026.1
20260507184119 69 228 1.0 2.0 0.00 0.00 0.00 39 1026.2
20260507183603 69 237 1.0 3.0 0.00 0.00 0.00 39 1026.1
20260507183303 69 227 2.0 4.0 0.00 0.00 0.00 39 1026.2
20260507183003 69 229 2.0 6.0 0.00 0.00 0.00 39 1026.0
20260507182703 69 232 3.0 6.0 0.00 0.00 0.00 39 1026.2
20260507182403 69 234 2.0 6.0 0.00 0.00 0.00 39 1025.9
20260507182103 69 238 2.0 6.0 0.00 0.00 0.00 39 1026.1
20260507181803 69 222 2.0 4.0 0.00 0.00 0.00 39 1026.2
20260507181718 69 215 1.0 3.0 0.00 0.00 0.00 40 1026.1
20260507181203 69 187 2.0 3.0 0.00 0.00 0.00 39 1026.0
20260507181117 69 179 1.0 3.0 0.00 0.00 0.00 40 1026.0
20260507180603 69 220 2.0 4.0 0.00 0.00 0.00 39 1026.3
20260507180304 69 233 2.0 4.0 0.00 0.00 0.00 40 1026.1
20260507180003 69 237 2.0 4.0 0.00 0.00 0.00 40 1026.1
20260507175703 69 237 2.0 4.0 0.00 0.00 0.00 40 1026.1
20260507175403 69 236 2.0 6.0 0.00 0.00 0.00 40 1026.1
20260507175103 69 234 3.0 9.0 0.00 0.00 0.00 40 1026.0
20260507174803 69 231 3.0 9.0 0.00 0.00 0.00 41 1025.9
20260507174503 69 226 3.0 9.0 0.00 0.00 0.00 41 1025.8
20260507174203 69 228 2.0 6.0 0.00 0.00 0.00 41 1026.0
20260507173903 69 233 2.0 4.0 0.00 0.00 0.00 42 1025.9
20260507173603 69 234 1.0 4.0 0.00 0.00 0.00 43 1025.7
20260507173303 69 226 2.0 6.0 0.00 0.00 0.00 43 1025.9
20260507173216 69 226 2.0 8.0 0.00 0.00 0.00 43 1026.0
20260507172918 70 231 3.0 9.0 0.00 0.00 0.00 42 1025.9
20260507172403 70 237 5.0 10.0 0.00 0.00 0.00 40 1026.0
20260507172103 70 242 5.0 10.0 0.00 0.00 0.00 39 1026.0
20260507172018 70 243 5.0 10.0 0.00 0.00 0.00 39 1026.0
20260507171503 70 243 4.0 8.0 0.00 0.00 0.00 39 1026.0
20260507171203 71 240 4.0 8.0 0.00 0.00 0.00 38 1025.9
20260507170903 71 242 4.0 8.0 0.00 0.00 0.00 38 1025.9
20260507170817 71 242 4.0 8.0 0.00 0.00 0.00 38 1025.8
20260507170303 71 243 3.0 8.0 0.00 0.00 0.00 39 1025.7
20260507170003 71 240 2.0 8.0 0.00 0.00 0.00 38 1025.4
20260507165703 71 240 2.0 7.0 0.00 0.00 0.00 38 1025.3
20260507165404 71 242 2.0 7.0 0.00 0.00 0.00 38 1025.5
20260507165103 71 237 2.0 7.0 0.00 0.00 0.00 38 1025.5
20260507164803 71 236 2.0 7.0 0.00 0.00 0.00 37 1025.3
20260507164717 71 237 2.0 6.0 0.00 0.00 0.00 39 1025.3
20260507164203 71 235 2.0 6.0 0.00 0.00 0.00 41 1025.3
20260507163903 71 227 2.0 6.0 0.00 0.00 0.00 41 1025.3
20260507163603 71 221 3.0 6.0 0.00 0.00 0.00 39 1025.3
20260507163303 71 223 3.0 6.0 0.00 0.00 0.00 40 1025.2
20260507163218 71 226 3.0 6.0 0.00 0.00 0.00 39 1025.2
20260507162703 71 233 3.0 6.0 0.00 0.00 0.00 43 1025.5
20260507162403 71 239 3.0 4.0 0.00 0.00 0.00 42 1025.6
20260507162103 71 239 3.0 6.0 0.00 0.00 0.00 42 1025.5
20260507161803 71 241 3.0 6.0 0.00 0.00 0.00 39 1025.5
20260507161717 71 242 3.0 6.0 0.00 0.00 0.00 38 1025.5
20260507161203 71 241 3.0 7.0 0.00 0.00 0.00 41 1025.5
20260507161116 71 240 3.0 7.0 0.00 0.00 0.00 41 1025.5
20260507160603 72 238 3.0 7.0 0.00 0.00 0.00 41 1025.4
20260507160518 72 238 3.0 7.0 0.00 0.00 0.00 41 1025.4
20260507160004 72 234 3.0 6.0 0.00 0.00 0.00 38 1025.4
20260507155703 72 236 3.0 6.0 0.00 0.00 0.00 38 1025.5
20260507155403 72 236 2.0 4.0 0.00 0.00 0.00 38 1025.5
20260507155103 72 234 2.0 3.0 0.00 0.00 0.00 37 1025.3
20260507154803 72 232 2.0 3.0 0.00 0.00 0.00 39 1025.5
20260507154503 72 239 2.0 4.0 0.00 0.00 0.00 39 1025.5
20260507154203 71 244 2.0 6.0 0.00 0.00 0.00 40 1025.5
20260507153903 72 242 3.0 6.0 0.00 0.00 0.00 40 1025.4
20260507153603 71 237 3.0 6.0 0.00 0.00 0.00 40 1025.6
20260507153303 72 236 3.0 8.0 0.00 0.00 0.00 40 1025.7
20260507153003 72 235 3.0 8.0 0.00 0.00 0.00 40 1025.8
20260507152917 72 235 3.0 8.0 0.00 0.00 0.00 40 1026.1
20260507152403 72 238 4.0 10.0 0.00 0.00 0.00 41 1025.8
20260507152103 72 240 3.0 10.0 0.00 0.00 0.00 40 1025.9
20260507151803 73 239 2.0 8.0 0.00 0.00 0.00 39 1026.1
20260507151503 72 241 2.0 6.0 0.00 0.00 0.00 39 1025.9
20260507151203 72 243 2.0 8.0 0.00 0.00 0.00 39 1025.9
20260507150903 72 242 2.0 8.0 0.00 0.00 0.00 38 1025.9
20260507150603 73 242 3.0 8.0 0.00 0.00 0.00 38 1025.8
20260507150303 73 238 3.0 8.0 0.00 0.00 0.00 38 1026.0
20260507150003 73 234 3.0 8.0 0.00 0.00 0.00 37 1025.7
20260507145703 73 234 4.0 10.0 0.00 0.00 0.00 38 1025.7
20260507145403 72 240 5.0 10.0 0.00 0.00 0.00 38 1025.8
20260507145317 72 240 5.0 10.0 0.00 0.00 0.00 38 1025.9
20260507145017 72 241 6.0 11.0 0.00 0.00 0.00 35 1025.8
20260507144503 72 237 6.0 11.0 0.00 0.00 0.00 33 1025.7
20260507144203 72 234 6.0 13.0 0.00 0.00 0.00 33 1025.8
20260507143903 72 238 6.0 14.0 0.00 0.00 0.00 32 1025.9
20260507143603 72 240 6.0 14.0 0.00 0.00 0.00 33 1025.9
20260507143303 72 244 7.0 14.0 0.00 0.00 0.00 33 1025.7
20260507143003 72 238 7.0 13.0 0.00 0.00 0.00 33 1025.9
20260507142703 73 236 7.0 13.0 0.00 0.00 0.00 34 1025.9
20260507142403 73 234 7.0 14.0 0.00 0.00 0.00 31 1025.9
20260507142103 73 229 7.0 14.0 0.00 0.00 0.00 31 1025.7
20260507141803 73 227 7.0 14.0 0.00 0.00 0.00 28 1025.8
20260507141503 74 224 6.0 13.0 0.00 0.00 0.00 26 1025.8
20260507141418 74 221 6.0 13.0 0.00 0.00 0.00 26 1025.8
20260507140903 74 227 6.0 11.0 0.00 0.00 0.00 25 1026.0
20260507140603 74 222 5.0 11.0 0.00 0.00 0.00 28 1025.8
20260507140517 74 219 5.0 11.0 0.00 0.00 0.00 27 1025.7
20260507140217 74 226 5.0 10.0 0.00 0.00 0.00 26 1025.5
20260507135703 74 235 5.0 10.0 0.00 0.00 0.00 27 1025.1
20260507135403 75 232 5.0 13.0 0.00 0.00 0.00 27 1025.4
20260507135103 75 235 6.0 16.0 0.00 0.00 0.00 26 1025.6
20260507134803 74 237 6.0 16.0 0.00 0.00 0.00 25 1025.4
20260507134503 74 239 7.0 16.0 0.00 0.00 0.00 26 1025.3
20260507134203 75 236 7.0 16.0 0.00 0.00 0.00 25 1025.3
20260507133903 75 235 7.0 13.0 0.00 0.00 0.00 26 1025.4
20260507133603 74 239 6.0 11.0 0.00 0.00 0.00 27 1025.1
20260507133303 75 237 6.0 11.0 0.00 0.00 0.00 28 1025.3
20260507133217 75 238 6.0 11.0 0.00 0.00 0.00 28 1025.1
20260507132703 74 224 5.0 13.0 0.00 0.00 0.00 28 1025.2
20260507132403 74 232 6.0 13.0 0.00 0.00 0.00 28 1025.4
20260507132103 74 237 6.0 13.0 0.00 0.00 0.00 29 1025.5
20260507131803 74 240 6.0 13.0 0.00 0.00 0.00 29 1025.3
20260507131503 74 244 5.0 13.0 0.00 0.00 0.00 28 1025.3
20260507131417 74 244 5.0 13.0 0.00 0.00 0.00 28 1025.3
20260507130903 74 248 5.0 13.0 0.00 0.00 0.00 29 1025.5
20260507130603 73 244 6.0 13.0 0.00 0.00 0.00 30 1025.4
20260507130303 72 242 6.0 13.0 0.00 0.00 0.00 33 1025.4
20260507130003 72 244 6.0 14.0 0.00 0.00 0.00 36 1025.4
20260507125916 72 243 7.0 14.0 0.00 0.00 0.00 37 1025.3
20260507125403 72 239 7.0 14.0 0.00 0.00 0.00 39 1025.7
20260507125103 72 235 6.0 14.0 0.00 0.00 0.00 39 1025.7
20260507124803 72 231 6.0 10.0 0.00 0.00 0.00 39 1025.7
20260507124503 72 232 6.0 10.0 0.00 0.00 0.00 39 1025.6
20260507124203 72 226 6.0 11.0 0.00 0.00 0.00 40 1025.8
20260507123903 72 231 6.0 11.0 0.00 0.00 0.00 40 1025.8
20260507123817 72 232 6.0 11.0 0.00 0.00 0.00 40 1025.7
20260507123303 72 235 5.0 10.0 0.00 0.00 0.00 39 1025.9
20260507123003 72 236 5.0 10.0 0.00 0.00 0.00 39 1025.8
20260507122705 72 243 6.0 14.0 0.00 0.00 0.00 39 1025.7
20260507122403 72 248 5.0 14.0 0.00 0.00 0.00 40 1026.0
20260507122103 72 243 5.0 14.0 0.00 0.00 0.00 39 1026.0
20260507122018 72 243 5.0 14.0 0.00 0.00 0.00 39 1026.1
20260507121504 73 228 5.0 10.0 0.00 0.00 0.00 36 1026.0
20260507121203 73 229 5.0 10.0 0.00 0.00 0.00 35 1026.0
20260507121117 73 227 5.0 10.0 0.00 0.00 0.00 34 1025.9
20260507120603 73 225 5.0 9.0 0.00 0.00 0.00 40 1026.1
20260507120303 72 227 5.0 9.0 0.00 0.00 0.00 41 1026.0
20260507120003 72 232 5.0 9.0 0.00 0.00 0.00 44 1026.0
20260507115703 72 237 6.0 9.0 0.00 0.00 0.00 44 1026.1
20260507115403 72 237 5.0 9.0 0.00 0.00 0.00 49 1026.1
20260507115103 72 236 5.0 10.0 0.00 0.00 0.00 47 1026.1
20260507114803 72 229 5.0 10.0 0.00 0.00 0.00 49 1026.0
20260507114503 71 228 5.0 10.0 0.00 0.00 0.00 48 1026.0
20260507114203 72 227 6.0 10.0 0.00 0.00 0.00 48 1026.2
20260507113903 72 233 6.0 10.0 0.00 0.00 0.00 48 1026.2
20260507113816 72 233 6.0 10.0 0.00 0.00 0.00 48 1026.3
20260507113303 72 245 6.0 15.0 0.00 0.00 0.00 46 1026.1
20260507113003 71 242 6.0 15.0 0.00 0.00 0.00 47 1026.3
20260507112918 71 242 6.0 15.0 0.00 0.00 0.00 48 1025.9
20260507112618 71 234 6.0 10.0 0.00 0.00 0.00 48 1026.4
20260507112103 72 232 6.0 10.0 0.00 0.00 0.00 48 1026.3
20260507111803 72 233 6.0 13.0 0.00 0.00 0.00 45 1026.4
20260507111503 72 230 7.0 18.0 0.00 0.00 0.00 47 1026.5
20260507111203 72 234 8.0 18.0 0.00 0.00 0.00 44 1026.4
20260507110903 72 238 8.0 18.0 0.00 0.00 0.00 45 1026.5
20260507110819 72 237 8.0 18.0 0.00 0.00 0.00 44 1026.2
20260507110303 72 240 7.0 16.0 0.00 0.00 0.00 42 1026.2
20260507110003 72 238 8.0 16.0 0.00 0.00 0.00 47 1026.1
20260507105703 71 239 8.0 15.0 0.00 0.00 0.00 50 1026.1
20260507105403 71 236 9.0 15.0 0.00 0.00 0.00 52 1026.0
20260507105103 72 239 9.0 16.0 0.00 0.00 0.00 50 1026.3
20260507104803 72 236 9.0 16.0 0.00 0.00 0.00 50 1026.2
20260507104719 72 234 8.0 16.0 0.00 0.00 0.00 50 1026.3
20260507104203 72 233 7.0 15.0 0.00 0.00 0.00 51 1026.4
20260507103903 73 233 7.0 15.0 0.00 0.00 0.00 50 1026.3
20260507103603 73 237 6.0 15.0 0.00 0.00 0.00 52 1026.2
20260507103518 73 237 6.0 15.0 0.00 0.00 0.00 52 1026.1
20260507103003 72 229 6.0 13.0 0.00 0.00 0.00 53 1025.9
20260507102703 72 228 6.0 13.0 0.00 0.00 0.00 52 1025.8
20260507102617 72 227 6.0 10.0 0.00 0.00 0.00 52 1025.7
20260507102103 72 227 5.0 10.0 0.00 0.00 0.00 53 1025.6
20260507102017 72 226 5.0 10.0 0.00 0.00 0.00 53 1025.6
20260507101503 72 230 5.0 9.0 0.00 0.00 0.00 53 1025.3
20260507101203 72 234 5.0 9.0 0.00 0.00 0.00 55 1025.5
20260507100903 72 233 5.0 10.0 0.00 0.00 0.00 55 1025.8
20260507100603 72 225 4.0 10.0 0.00 0.00 0.00 54 1025.8
20260507100303 72 219 5.0 10.0 0.00 0.00 0.00 54 1025.8
20260507100217 71 221 5.0 11.0 0.00 0.00 0.00 54 1025.9
20260507095703 71 231 6.0 13.0 0.00 0.00 0.00 55 1025.9
20260507095403 72 237 6.0 13.0 0.00 0.00 0.00 54 1026.2
20260507095103 72 231 5.0 9.0 0.00 0.00 0.00 53 1026.0
20260507094803 72 229 5.0 9.0 0.00 0.00 0.00 52 1026.0
20260507094503 72 228 5.0 9.0 0.00 0.00 0.00 52 1025.9
20260507094203 72 227 5.0 9.0 0.00 0.00 0.00 50 1025.8
20260507093903 72 225 5.0 9.0 0.00 0.00 0.00 50 1025.9
20260507093603 72 208 4.0 9.0 0.00 0.00 0.00 48 1025.8
20260507093303 73 208 4.0 9.0 0.00 0.00 0.00 47 1025.8
20260507093003 73 201 4.0 8.0 0.00 0.00 0.00 45 1025.8
20260507092703 74 212 4.0 8.0 0.00 0.00 0.00 45 1025.8
20260507092403 74 228 4.0 11.0 0.00 0.00 0.00 44 1026.0
20260507092103 73 238 4.0 11.0 0.00 0.00 0.00 43 1025.7
20260507092017 73 240 4.0 11.0 0.00 0.00 0.00 42 1025.9
20260507091718 73 240 4.0 11.0 0.00 0.00 0.00 42 1025.8
20260507091203 73 237 4.0 9.0 0.00 0.00 0.00 42 1025.9
20260507090903 73 237 5.0 9.0 0.00 0.00 0.00 42 1025.9
20260507090603 73 238 4.0 9.0 0.00 0.00 0.00 39 1025.5
20260507090303 73 232 4.0 9.0 0.00 0.00 0.00 41 1025.9
20260507090217 73 229 4.0 9.0 0.00 0.00 0.00 41 1025.9
20260507085917 73 220 3.0 8.0 0.00 0.00 0.00 40 1025.7
20260507085403 73 200 2.0 6.0 0.00 0.00 0.00 40 1025.5
20260507085103 73 195 2.0 6.0 0.00 0.00 0.00 40 1025.5
20260507084803 72 201 3.0 6.0 0.00 0.00 0.00 40 1025.6
20260507084503 72 204 3.0 6.0 0.00 0.00 0.00 40 1025.9
20260507084203 72 206 3.0 6.0 0.00 0.00 0.00 40 1025.7
20260507083903 72 207 3.0 6.0 0.00 0.00 0.00 39 1026.0
20260507083603 72 197 3.0 6.0 0.00 0.00 0.00 39 1025.8
20260507083303 72 206 3.0 7.0 0.00 0.00 0.00 40 1026.0
20260507083003 71 206 3.0 7.0 0.00 0.00 0.00 40 1025.8
20260507082703 71 200 3.0 7.0 0.00 0.00 0.00 41 1025.7
20260507082403 72 216 4.0 7.0 0.00 0.00 0.00 41 1025.7
20260507082316 72 216 4.0 7.0 0.00 0.00 0.00 41 1025.8
20260507081803 72 229 3.0 7.0 0.00 0.00 0.00 42 1025.6
20260507081503 72 226 3.0 6.0 0.00 0.00 0.00 41 1025.5
20260507081203 71 226 3.0 7.0 0.00 0.00 0.00 41 1025.6
20260507080903 71 223 3.0 7.0 0.00 0.00 0.00 42 1025.4
20260507080817 71 221 3.0 7.0 0.00 0.00 0.00 42 1025.7
20260507080303 71 212 3.0 7.0 0.00 0.00 0.00 41 1025.7
20260507080003 72 211 3.0 7.0 0.00 0.00 0.00 41 1025.8
20260507075703 71 214 3.0 6.0 0.00 0.00 0.00 40 1025.8
20260507075616 71 218 3.0 6.0 0.00 0.00 0.00 40 1025.6
20260507075103 72 235 3.0 8.0 0.00 0.00 0.00 38 1025.8
20260507074803 70 240 3.0 8.0 0.00 0.00 0.00 39 1025.8
20260507074503 71 233 3.0 8.0 0.00 0.00 0.00 40 1025.8
20260507074203 71 227 3.0 8.0 0.00 0.00 0.00 40 1025.7
20260507074117 70 227 3.0 8.0 0.00 0.00 0.00 40 1025.7
20260507073603 69 234 3.0 7.0 0.00 0.00 0.00 39 1025.5
20260507073303 70 237 3.0 7.0 0.00 0.00 0.00 40 1025.5
20260507073004 70 228 3.0 7.0 0.00 0.00 0.00 40 1025.5
20260507072703 70 217 3.0 7.0 0.00 0.00 0.00 42 1025.3
20260507072403 70 206 3.0 6.0 0.00 0.00 0.00 42 1025.4
20260507072103 70 198 3.0 6.0 0.00 0.00 0.00 42 1025.3
20260507071804 69 218 3.0 8.0 0.00 0.00 0.00 42 1025.5
20260507071503 69 210 3.0 8.0 0.00 0.00 0.00 43 1025.5
20260507071203 69 205 3.0 8.0 0.00 0.00 0.00 44 1025.5
20260507070903 70 193 3.0 8.0 0.00 0.00 0.00 44 1025.6
20260507070603 70 204 3.0 6.0 0.00 0.00 0.00 44 1025.5
20260507070303 69 217 3.0 6.0 0.00 0.00 0.00 46 1025.6
20260507070007 69 220 3.0 6.0 0.00 0.00 0.00 47 1025.7
20260507065703 69 223 3.0 6.0 0.00 0.00 0.00 47 1025.7